Regional Weather Roundup
Issued by NWS State College, PA

Home | Current Version | Previous Version | Graphics & Text | Print | Product List | Glossary On
Versions: 1 2 3 4 5 6 7 8 9 10 11 12 13 14 15 16 17 18 19 20 21 22 23 24 25 26 27 28 29 30 31 32 33 34 35 36 37 38 39 40 41 42 43 44 45 46 47 48 49 50
000
ASUS41 KCTP 240703
RWRCTP

REGIONAL WEATHER ROUNDUP
NATIONAL WEATHER SERVICE STATE COLLEGE PA
300 AM EDT SUN JUL 24 2016

Note: "fair" indicates few or no clouds below 12,000 feet with no
significant weather and/or obstructions to visibility.

* = STATION THAT DOES NOT REPORT PRECIPITATION /E.G. RAIN...SNOW...ETC/
    THUNDER OR FOG.

PAZ002>004-007>009-013>016-020>023-029>032-240800-
WESTERN PENNSYLVANIA

CITY           SKY/WX    TMP DP  RH WIND       PRES   REMARKS
ERIE           CLOUDY    68  62  81 S3        30.00F
MEADVILLE      CLOUDY    64  59  83 CALM      30.03F
FRANKLIN*      CLOUDY    63  57  82 CALM      30.06F
NEW CASTLE     FAIR      64  62  93 CALM      30.03F
BEAVER COUNTY  NOT AVBL
BUTLER*        CLEAR     64  61  88 NE3       30.05F
PITTSBURGH INT PTCLDY    71  66  84 CALM      30.01F
PITTSBURGH     PTCLDY    73  68  84 CALM      30.01F HAZE
INDIANA*       CLEAR     66  64  94 CALM      30.07F
LATROBE        CLEAR     66  66 100 CALM      30.04S FOG
WASHINGTON CO* CLOUDY    66  64  94 CALM      30.03S VSB 3/4
$$

PAZ004>006-010>012-017>019-024>028-033>037-041-042-045-046-049>053-240800-
CENTRAL PENNSYLVANIA

CITY           SKY/WX    TMP DP  RH WIND       PRES   REMARKS
BRADFORD       CLEAR     57  55  93 SE3       30.06F FOG
DUBOIS         PTCLDY    64  57  78 CALM      30.05S
CLEARFIELD     PTCLDY    64  56  75 CALM      30.05S
JOHNSTOWN      CLEAR     72  61  68 CALM      30.07F
ALTOONA        CLEAR     64  61  90 CALM      30.04F
STATE COLLEGE  PTCLDY    69  56  65 CALM      30.02S
WILLIAMSPORT   PTCLDY    67  55  65 CALM      29.98S
SELINSGROVE    CLOUDY    62  62 100 CALM      29.99R
FT INDIANTOWN  CLEAR     67  57  69 NE1       29.97S
CAPITAL CITY   PTCLDY    71  62  73 W5        29.97R
HARRISBURG     PTCLDY    72  69  90 CALM      29.96R
YORK           CLEAR     66  64  93 CALM      29.97S
$$

PAZ038>040-043-044-047-048-054-055-060>062-067>071-240800-
EASTERN PENNSYLVANIA

CITY           SKY/WX    TMP DP  RH WIND       PRES   REMARKS
SCRANTON       CLEAR     69  57  65 E7        29.99S
MOUNT POCONO   CLEAR     67  32  27 NW6       30.04R
ALLENTOWN      CLEAR     70  60  70 W3        29.97R
QUAKERTOWN*    SUNNY     66  64  94 CALM      29.98R
READING        CLEAR     70  65  84 NW3       29.96R
LANCASTER      CLEAR     68  67  96 CALM      29.96S
COATESVILLE    SUNNY     73  64  73 CALM      29.98S
POTTSTOWN      CLEAR     68  66  93 CALM      29.98R
BLUE BELL      CLEAR     64  64 100 CALM      29.94S
DOYLESTOWN     CLEAR     68  65  90 CALM      29.95S
WILLOW GROVE   NOT AVBL
NORTH PHILA    CLEAR     73  65  75 CALM      29.95S
PHILADELPHIA   PTCLDY    77  68  73 N3        29.94R
$$



USA.gov is the U.S. government's official web portal to all federal, state and local government web resources and services.